This is the latest recevied weather packets stored in our database for station/object SV9TNF-52. If no packets are shown the sender has not sent any weather packets the latest 10 day(s).
| Time | Temp. | Humidity | Pressure | Rain* | Wind** | Luminosity | Snow |
|---|---|---|---|---|---|---|---|
| 1788070332 | 28.33° C | 55% | 1020.7 hPa | 0 mm | 0 m/s | - | - |
| 1788070032 | 27.22° C | 56% | 1020.3 hPa | 0 mm | 12.07 m/s, 257° | - | - |
| 1788069732 | 27.22° C | 57% | 1020.3 hPa | 0 mm | 7.15 m/s, 240° | - | - |
| 1788069442 | 27.22° C | 58% | 1020.7 hPa | 0 mm | 4.92 m/s, 261° | - | - |
| 1788069132 | 27.22° C | 58% | 1020.7 hPa | 0 mm | 6.71 m/s, 262° | - | - |
| 1788068831 | 26.67° C | 60% | 1020.7 hPa | 0 mm | 6.26 m/s, 251° | - | - |
| 1788068531 | 26.67° C | 60% | 1020.7 hPa | 0 mm | 8.05 m/s, 252° | - | - |
| 1788068231 | 26.67° C | 61% | 1020.7 hPa | 0 mm | 4.92 m/s, 195° | - | - |
| 1788067931 | 26.11° C | 62% | 1020.7 hPa | 0 mm | 7.15 m/s, 253° | - | - |
| 1788067631 | 25.56° C | 63% | 1020.7 hPa | 0 mm | 4.47 m/s, 236° | - | - |
| 1788067331 | 25.56° C | 64% | 1020.7 hPa | 0 mm | 4.92 m/s, 216° | - | - |
| 1788067031 | 25° C | 66% | 1020.7 hPa | 0 mm | 7.15 m/s, 230° | - | - |
| 1788066731 | 24.44° C | 67% | 1020.7 hPa | 0 mm | 5.81 m/s, 227° | - | - |
| 1788066430 | 23.89° C | 68% | 1021 hPa | 0 mm | 7.15 m/s, 208° | - | - |
| 1788066130 | 23.89° C | 68% | 1021 hPa | 0 mm | 5.36 m/s, 208° | - | - |
| 1788065831 | 23.33° C | 69% | 1021 hPa | 0 mm | 5.36 m/s, 209° | - | - |
| 1788065530 | 23.33° C | 70% | 1021 hPa | 0 mm | 5.36 m/s, 233° | - | - |
| 1788065230 | 23.33° C | 70% | 1021 hPa | 0 mm | 4.92 m/s, 186° | - | - |
| 1788064935 | 22.78° C | 70% | 1021 hPa | 0 mm | 4.02 m/s, 244° | - | - |
| 1788064630 | 22.78° C | 71% | 1021 hPa | 0 mm | 5.81 m/s, 233° | - | - |
| 1788064330 | 22.78° C | 71% | 1020.7 hPa | 0 mm | 4.47 m/s, 212° | - | - |
| 1788064030 | 22.22° C | 71% | 1020.7 hPa | 0 mm | 8.05 m/s, 239° | - | - |
| 1788063729 | 22.22° C | 71% | 1020.7 hPa | 0 mm | 4.02 m/s, 212° | - | - |
| 1788063429 | 22.22° C | 71% | 1020.7 hPa | 0 mm | 4.02 m/s, 215° | - | - |
| 1788063130 | 22.22° C | 71% | 1020.7 hPa | 0 mm | 6.26 m/s, 166° | - | - |
* Rain latest hour (hover to see other rain measurements)
** Current wind speed in m/s (hover to see current wind gust speed)